Location: Augustenthal
(51.7167°N, 10.2833°E)
Time: 16:47:41
(UTC+00:00)

Cosmos 1455 Rocket - Visible Passes

Search period start: 25 September 2021 00:00
Search period end: 05 October 2021 00:00
Orbit: 604 x 630 km, 82.5° (Epoch: 24 September)

Date Brightness Start Highest point End Pass type
(mag) Time Alt. Az. Time Alt. Az. Time Alt. Az.
25 Sep 5.6 20:36:48 13° NNE 20:36:48 13° NNE 20:37:18 10° NNE visible
25 Sep 6.0 22:13:54 13° NNW 22:13:54 13° NNW 22:14:38 10° NNW visible
26 Sep 5.6 20:53:20 15° NNE 20:53:20 15° NNE 20:54:09 10° NNE visible
26 Sep 6.2 22:30:26 11° NNW 22:30:26 11° NNW 22:30:37 10° NNW visible
27 Sep 5.6 21:09:51 16° N 21:09:51 16° N 21:10:51 10° N visible
28 Sep 5.6 19:49:16 11° NNE 19:49:16 11° NNE 19:49:24 10° NNE visible
28 Sep 5.8 21:26:23 16° NNW 21:26:23 16° NNW 21:27:24 10° N visible
29 Sep 5.5 20:05:47 14° NNE 20:05:47 14° NNE 20:06:25 10° NNE visible
29 Sep 6.0 21:42:53 14° NNW 21:42:53 14° NNW 21:43:45 10° NNW visible
30 Sep 5.4 20:22:16 17° NNE 20:22:16 17° NNE 20:23:15 10° NNE visible
30 Sep 6.2 21:59:21 11° NNW 21:59:21 11° NNW 21:59:45 10° NNW visible
01 Oct 5.4 20:38:43 18° N 20:38:43 18° N 20:39:58 10° N visible
02 Oct 5.4 19:18:04 12° NNE 19:18:04 12° NNE 19:18:31 10° NNE visible
02 Oct 5.6 20:55:09 18° NNW 20:55:09 18° NNW 20:56:31 10° N visible
03 Oct 5.2 19:34:28 17° NNE 19:34:28 17° NNE 19:35:32 10° NNE visible
03 Oct 5.8 21:11:33 16° NNW 21:11:33 16° NNW 21:12:52 10° NNW visible
04 Oct 5.0 19:50:50 21° NNE 19:50:50 21° NNE 19:52:22 10° NNE visible
04 Oct 6.1 21:27:55 13° NW 21:27:55 13° NW 21:28:53 10° NNW visible
